Regional Weather Roundup
Issued by NWS

Home | Current Version | Previous Version | Text Only | Print | Product List | Glossary Off
Versions: 1 2 3 4 5 6 7 8 9 10 11 12 13 14 15 16 17 18 19 20 21 22 23 24 25 26 27 28 29 30 31 32 33 34 35 36 37 38 39 40 41 42 43 44 45 46 47 48 49 50

000
ASUS43 KOAX 182102
RWRNE

WEATHER ROUNDUP FOR NEBRASKA
NATIONAL WEATHER SERVICE OMAHA NE
300 PM CST THU JAN 18 2018

NOTES: SATELLITE DATA IS BEING USED TO AUGMENT CLOUD COVER ABOVE
       12000 FEET.
       "FAIR" INDICATES FEW OR NO CLOUDS BELOW 12,000 FEET WITH NO
       SIGNIFICANT WEATHER AND/OR OBSTRUCTIONS TO VISIBILITY.


NEZ001>004-019>022-054>056-182200-
NEBRASKA PANHANDLE

CITY           SKY/WX    TMP DP  RH WIND       PRES   REMARKS
SCOTTSBLUFF    FAIR      51  30  44 CALM      29.92F
ALLIANCE       FAIR      43  33  68 W9        29.90F
CHADRON        FAIR      51  28  41 W6        29.85F
GORDON         FAIR      51  27  39 W9        29.85F
KIMBALL        FAIR      62  20  20 W18       29.96F
SIDNEY         FAIR      62  19  19 MISG      29.94F
$$

NEZ057>060-069>072-079>082-182200-
SOUTHWEST NEBRASKA

CITY           SKY/WX    TMP DP  RH WIND       PRES   REMARKS
NORTH PLATTE   FAIR      47  29  49 W8        29.91F
IMPERIAL       FAIR      56  26  31 SW7       29.93F
LEXINGTON      FAIR      46  32  59 CALM      29.92S
MCCOOK         FAIR      52  24  33 W9        29.93F
OGALLALA       FAIR      47  27  46 W6        29.92F
$$

NEZ005>010-023>029-035>040-094-182200-
NORTH CENTRAL NEBRASKA

CITY           SKY/WX    TMP DP  RH WIND       PRES   REMARKS
VALENTINE      FAIR      48  31  51 W8        29.85F
AINSWORTH      FAIR      44  32  63 W6        29.85S
BROKEN BOW     FAIR      42  30  62 CALM      29.88F
O`NEILL        FAIR      41  31  68 SW6       29.84F
ORD            FAIR      47  29  49 SW8       29.87F
THEDFORD       FAIR      46  32  57 W6        29.89S
$$

NEZ041-046>049-061>064-073>077-083>087-182200-
SOUTH CENTRAL NEBRASKA

CITY           SKY/WX    TMP DP  RH WIND       PRES   REMARKS
GRAND ISLAND   FAIR      43  31  62 SW10      29.91F
AURORA         FAIR      43  30  59 SW15      29.91F
HASTINGS       FAIR      44  28  53 SW10      29.92F
HEBRON         FAIR      40  28  63 S7        29.97F WCI  35
HOLDREGE       FAIR      49  27  41 SW7       29.92F
KEARNEY        FAIR      44  30  57 SW10      29.91F
YORK           FAIR      45  32  61 SW16      29.92F
$$

NEZ011>018-030>034-042>045-182200-
NORTHEAST NEBRASKA

CITY           SKY/WX    TMP DP  RH WIND       PRES   REMARKS
NORFOLK        FAIR      39  29  67 SW14      29.85S WCI  31
ALBION         FAIR      46  30  52 SW5       29.87F
BLAIR          FAIR      40  25  55 S16       29.91F WCI  31
COLUMBUS       FAIR      45  28  51 SW14      29.90F
FREMONT        FAIR      42  24  49 S10G17    29.90F
TEKAMAH        FAIR      40  23  50 S17       29.90F WCI  31
WAYNE          FAIR      42  29  61 SW12      29.86S
$$

NEZ050>053-065>068-078-088>093-182200-
SOUTHEAST NEBRASKA

CITY           SKY/WX    TMP DP  RH WIND       PRES   REMARKS
LINCOLN        FAIR      42  23  46 S17       29.95F
OMAHA EPPLEY   PTSUNNY   35  21  56 S16       29.95F WCI  25
BEATRICE       FAIR      36  24  63 S12       29.99F WCI  28
FALLS CITY     FAIR      39  21  48 S9        30.03F WCI  33
NEBRASKA CITY  FAIR      34  23  64 S12       29.99F WCI  25
PLATTSMOUTH    FAIR      32  22  66 S16       29.97F WCI  21
$$

NEZ044-045-051>053-067-182200-
OMAHA AREA

CITY           SKY/WX    TMP DP  RH WIND       PRES   REMARKS
OMAHA EPPLEY   PTSUNNY   35  21  56 S16       29.95F WCI  25
BLAIR          FAIR      40  25  55 S16       29.91F WCI  31
FREMONT        FAIR      42  24  49 S10G17    29.90F
MILLARD        FAIR      38  24  58 S10       29.95F WCI  30
PLATTSMOUTH    FAIR      32  22  66 S16       29.97F WCI  21
WAHOO          FAIR      44  24  45 S15       29.91F
$$




USA.gov is the U.S. government's official web portal to all federal, state and local government web resources and services.